Location: Hopewell Observatory
(38.8698°N, 77.6988°W)
Time: 11:55:02
(UTC-05:00)

Daily predictions for brighter satellites

Satellite Brightness Start Highest point End
(mag) Time Altitude Azimuth Time Altitude Azimuth Time Altitude Azimuth
Cosmos 1602 4.1 18:22:34 10° SSE 18:26:14 44° E 18:29:58 10° NNE
Cosmos 2151 Rocket 3.8 18:23:14 10° S 18:27:44 84° W 18:32:18 10° N
Meteor 1-11 Rocket 4.1 18:22:16 10° SSE 18:27:46 46° E 18:33:23 10° NNE
OTV 4 2.9 18:28:03 10° SSE 18:28:53 11° SSE 18:29:44 10° SE
Cosmos 1833 4.2 18:24:20 10° SSW 18:30:02 86° ESE 18:35:43 10° NNE
Cosmos 1340 2.7 18:29:00 10° N 18:32:46 60° E 18:36:29 10° SSE
Cosmos 1023 Rocket 4.4 18:29:35 10° S 18:34:38 72° ESE 18:39:47 10° NNE
ALOS 3.1 18:30:39 10° SE 18:34:41 30° ENE 18:38:45 10° N
Cosmos 1025 Rocket 4.3 18:31:57 10° NNE 18:35:16 21° ENE 18:38:35 10° ESE
SL-16 R/B 3.5 18:31:00 10° NW 18:36:22 45° WSW 18:41:44 10° S
Cosmos 2333 Rocket 3.8 18:34:51 10° NNE 18:38:28 17° NE 18:41:50 11° E
NOAA 12 4.1 18:42:40 10° SSE 18:47:59 82° ENE 18:53:20 10° N
FENGYUN 3A 4.0 18:43:59 10° SE 18:49:04 44° ENE 18:54:11 10° N
Abrixas rocket 2.2 18:46:53 10° SW 18:50:14 72° SE 18:52:57 15° ENE
Meteor 1-28 Rocket 4.4 18:47:23 10° N 18:51:02 46° WNW 18:54:42 10° SSW
Cosmos 2322 Rocket 4.2 18:46:17 10° NW 18:51:12 32° WSW 18:56:07 10° SSW
Cosmos 1741 Rocket 4.0 18:47:09 10° S 18:52:17 62° ESE 18:57:26 10° NNE
FREGAT/IRIS 2.6 18:49:28 10° SSE 18:52:31 66° ENE 18:55:36 10° N
Tiangong 2 3.8 18:52:45 10° WSW 18:54:36 15° SW 18:56:27 10° S
Genesis I 3.3 18:52:12 10° NNW 18:56:06 56° ENE 18:59:56 10° SE
GEOS 3 Rocket 4.1 18:52:46 10° NE 18:57:43 41° ESE 19:02:41 10° S
Okean 1-7 Rocket 3.8 18:53:26 10° N 18:57:50 48° E 19:02:10 10° SSE
GPS 2-04 Rocket1 3.4 18:55:06 10° WSW 18:59:11 46° SSE 19:01:59 19° ESE
FengYun 1-2 T 4.2 18:57:44 10° SSE 19:03:06 58° ENE 19:08:29 10° N
Cosmos 1633 3.6 19:00:12 10° SSW 19:03:46 49° W 19:07:22 10° N
Cosmos 1140 Rocket 4.1 19:01:06 10° SSW 19:06:08 58° WNW 19:11:14 10° N
METEOR-M 4.5 19:00:57 10° S 19:06:16 69° WSW 19:11:36 10° NNW
Cosmos 614 Rocket 4.2 19:04:16 10° SSW 19:09:19 72° WNW 19:14:24 10° NNE
Cosmos 2322 4.0 19:05:35 10° NNW 19:11:17 70° WSW 19:16:56 10° SSE
Hubble Space Telescope 2.9 19:08:55 10° SSW 19:11:18 15° SSE 19:12:51 13° SE
Cosmos 1570 Rocket 3.9 19:06:08 10° NNW 19:11:22 75° ENE 19:16:36 10° SSE
SJ-6B 3.2 19:09:21 10° S 19:13:19 68° WSW 19:17:14 10° NNW
ATLAS CENTAUR R/B 2.3 19:09:54 10° SSW 19:14:11 29° SE 19:14:33 28° ESE
ATLAS 2A CENTAUR R/B 4.0 19:17:26 10° SSW 19:19:23 13° SSE 19:22:32 10° SE
Cosmos 405 Rocket 3.4 19:19:51 10° N 19:23:33 34° ENE 19:23:33 34° ENE
Helios 1A 3.5 19:23:44 34° E 19:24:26 36° ENE 19:28:16 10° N
USA 229 DEB 3.8 19:17:34 10° NNW 19:24:39 62° NE 19:29:53 20° SE
USA 229 3.8 19:17:40 10° NNW 19:24:44 61° NE 19:29:56 20° SE
CZ-2D R/B 3.4 19:24:00 31° SE 19:25:23 47° ENE 19:29:04 10° N
H-2A R/B 2.5 19:22:58 10° SSE 19:26:38 68° ENE 19:30:23 10° N
Spot 2 Rocket 3.4 19:21:39 10° SSE 19:26:41 75° ENE 19:31:46 10° N
Gbstr 26 Del rocket 4.2 19:23:43 10° W 19:27:08 30° NNW 19:29:29 16° NNE
Okean 2 3.5 19:23:05 10° N 19:27:10 50° E 19:29:22 24° SE
Cosmos 2237 Rocket 3.1 19:22:35 10° N 19:27:28 28° ENE 19:28:15 27° ENE
Cosmos 2333 4.1 19:22:28 10° NNW 19:28:13 74° ENE 19:33:43 11° SSE
Cosmos 2297 Rocket 3.6 19:24:13 10° SSE 19:26:19 19° SE 19:26:19 19° SE
Cosmos 2237 4.4 19:23:14 10° NNW 19:28:57 75° WSW 19:34:39 10° SSE
COSMOS 2428 2.6 19:23:16 10° NNW 19:29:00 86° ENE 19:34:41 10° SSE
Helios 1B rocket 2.7 19:26:19 10° NNE 19:30:17 43° E 19:34:13 10° S
Meteor 2-4 Rocket 3.9 19:27:54 10° NNW 19:33:23 69° W 19:38:43 10° S
Resurs 01 Rocket 1.6 19:31:05 10° S 19:35:29 83° WSW 19:39:55 10° NNW
SL-19 R/B 4.4 19:30:14 10° SSE 19:35:54 87° WSW 19:41:59 10° NNW
Meteor 1-23 Rocket 4.3 19:30:40 10° N 19:36:28 82° W 19:42:12 10° S
Atlas Centaur 2 4.1 19:33:09 10° SSW 19:37:22 17° SSE 19:38:25 16° SSE
Cosmos 1610 Rocket 4.4 19:33:06 10° S 19:39:16 69° E 19:45:23 10° NNE
Cosmos 2360 Rocket 3.9 19:35:41 10° NW 19:40:41 33° WSW 19:45:41 10° SSW
Cosmos 2208 Rocket 4.5 19:35:40 10° NNW 19:41:03 64° WSW 19:46:21 10° S
Cosmos 2219 Rocket 2.2 19:35:54 10° NNW 19:41:27 60° ENE 19:43:37 36° SE
Cosmos 1536 4.5 19:39:21 10° SW 19:43:01 35° WNW 19:46:42 10° N
Envisat 3.8 19:44:07 32° NE 19:44:07 32° NE 19:47:47 10° N
Cosmos 1814 Rocket 4.4 19:38:49 10° N 19:43:31 39° ENE 19:43:31 39° ENE
Cosmos 2219 3.9 19:39:46 10° SW 19:45:23 54° WNW 19:51:02 10° NNE
Resurs 1-3 3.8 19:44:02 10° S 19:48:23 71° WSW 19:52:47 10° NNW
Cosmos 2227 Rocket 2.3 19:43:18 10° S 19:48:42 49° ESE 19:49:26 46° E
NOSS 3-1 (C) 4.3 19:48:28 10° NNW 19:55:46 48° NE 19:57:53 40° E
SL-16 R/B 3.8 19:57:53 10° N 20:00:38 21° NNE 20:00:38 21° NNE
Spot 1 4.1 20:03:52 68° SW 20:04:07 71° WSW 20:08:16 10° NNW
OTV 4 3.2 20:01:40 10° SW 20:02:21 15° SW 20:02:21 15° SW
Cosmos 1892 Rocket 3.6 20:02:08 10° NNW 20:06:28 73° W 20:06:48 69° SW
ALOS 4.4 20:08:14 10° SSW 20:12:05 25° W 20:15:58 10° NW
Cosmos 2333 Rocket 2.2 20:17:37 10° NNW 20:23:22 77° WSW 20:23:54 71° SSW
Cosmos 1980 3.7 20:20:58 10° NNW 20:26:09 75° NNW 20:26:09 75° NNW
Nadezhda 3 Rocket 4.1 20:23:11 10° NNW 20:29:19 72° W 20:31:35 41° SSW
Cosmos 2341 Rocket 4.1 20:29:30 10° S 20:35:51 77° W 20:42:16 10° N
NOSS 0 Rocket 4.4 20:35:26 10° NNW 20:41:25 56° WSW 20:42:06 53° SW
Cosmos 2237 Rocket 3.7 21:06:19 10° NW 21:10:07 34° WNW 21:10:07 34° WNW
Cosmos 2297 Rocket 4.4 21:07:00 10° SW 21:08:19 17° SW 21:08:19 17° SW
Cosmos 2227 Rocket 4.3 21:28:31 10° WSW 21:31:29 21° W 21:31:29 21° W
ATLAS 2AS CENTAUR R/B 4.3 21:26:54 10° NNW 21:31:17 31° N 21:31:17 31° N
